Weather History for Melfa, VA

Change the Weather History Date:

Wednesday, October 31, 2012

  Actual Average (KWAL) Record (KWAL)
Temperature  
Mean Temperature 49 °F 54 °F  
Max Temperature 57 °F 64 °F 80 °F (2004)
Min Temperature 41 °F 45 °F 31 °F (2011)
Degree Days  
Heating Degree Days 16    
Month to date heating degree days  
Since 1 July heating degree days  
Cooling Degree Days 0    
Month to date cooling degree days  
Year to date cooling degree days  
Growing Degree Days 0 (Base 50)    
Moisture  
Dew Point 39 °F    
Average Humidity 66    
Maximum Humidity 87    
Minimum Humidity 47    
Precipitation  
Precipitation 0.00 in 0.11 in 0.30 in (2011)
Month to date precipitation 3.17  
Year to date precipitation 34.54  
Sea Level Pressure  
Sea Level Pressure 29.60 in    
Wind  
Wind Speed 7 mph (WSW)    
Max Wind Speed 15 mph    
Max Gust Speed 20 mph    
Visibility 10 miles    
Events      
T = Trace of Precipitation, MM = Missing Value Source: NWS Daily Summary

Daily Weather History Graph

Daily Weather History Graph

Search for Another Location

Airport:

Trip Planner

Search our weather history database for the weather conditions in past years. The results will help you decide how hot, cold, wet, or windy it might be!

Date:

Astronomy

Oct. 31, 2012 Rise Set
Actual Time 7:27 AM EDT 6:05 PM EDT
Civil Twilight 7:00 AM EDT 6:32 PM EDT
Nautical Twilight 6:29 AM EDT 7:03 PM EDT
Astronomical Twilight 5:59 AM EDT 7:33 PM EDT
Moon 7:16 PM EDT 9:04 AM EDT
Length of Visible Light 11h 31m
Length of Day
10h 37m
Full, 97% of the Moon is Illuminated
Oct 31
Full
Nov 6
Last Quarter
Nov 13
New
Nov 20
First Quarter
Nov 28
Full

Hourly Weather History & Observations

Time (EDT) Temp. Windchill Dew Point Humidity Pressure Visibility Wind Dir Wind Speed Gust Speed Precip Events Conditions
12:14 AM 48.2 °F - 35.6 °F 62% 29.52 in 10.0 mi WSW 9.2 mph 16.1 mph N/A   Overcast
12:34 AM 48.2 °F - 35.6 °F 62% 29.52 in 10.0 mi WSW 6.9 mph 16.1 mph N/A   Mostly Cloudy
1:14 AM 46.4 °F 43.5 °F 35.6 °F 66% 29.52 in 10.0 mi WSW 5.8 mph - N/A   Unknown
1:34 AM 46.4 °F 42.9 °F 35.6 °F 66% 29.52 in 10.0 mi WSW 6.9 mph - N/A   Unknown
1:54 AM 46.4 °F 43.5 °F 35.6 °F 66% 29.52 in 10.0 mi WSW 5.8 mph - N/A   Unknown
2:14 AM 44.6 °F 42.2 °F 35.6 °F 71% 29.53 in 10.0 mi WSW 4.6 mph - N/A   Unknown
2:34 AM 46.4 °F 43.5 °F 35.6 °F 66% 29.54 in 10.0 mi WSW 5.8 mph - N/A   Unknown
2:54 AM 44.6 °F 41.4 °F 35.6 °F 71% 29.54 in 10.0 mi SW 5.8 mph - N/A   Unknown
3:14 AM 44.6 °F 42.2 °F 35.6 °F 71% 29.54 in 10.0 mi SW 4.6 mph - N/A   Unknown
3:34 AM 44.6 °F 41.4 °F 35.6 °F 71% 29.54 in 10.0 mi SW 5.8 mph - N/A   Unknown
3:54 AM 44.6 °F 41.4 °F 35.6 °F 71% 29.55 in 10.0 mi SW 5.8 mph - N/A   Unknown
4:14 AM 44.6 °F 42.2 °F 37.4 °F 76% 29.55 in 10.0 mi SW 4.6 mph - N/A   Clear
4:34 AM 44.6 °F 41.4 °F 37.4 °F 76% 29.55 in 10.0 mi SW 5.8 mph - N/A   Clear
4:54 AM 44.6 °F 41.4 °F 37.4 °F 76% 29.56 in 10.0 mi SW 5.8 mph - N/A   Clear
5:14 AM 42.8 °F 38.6 °F 37.4 °F 81% 29.57 in 10.0 mi South 6.9 mph - N/A   Clear
5:34 AM 44.6 °F 41.4 °F 37.4 °F 76% 29.57 in 10.0 mi SSW 5.8 mph - N/A   Clear
5:55 AM 42.8 °F 39.3 °F 37.4 °F 81% 29.57 in 10.0 mi SSW 5.8 mph - N/A   Unknown
6:14 AM 42.8 °F 40.1 °F 37.4 °F 81% 29.57 in 10.0 mi SSW 4.6 mph - N/A   Unknown
6:34 AM 42.8 °F 39.3 °F 37.4 °F 81% 29.58 in 10.0 mi South 5.8 mph - N/A   Unknown
6:54 AM 42.8 °F 39.3 °F 37.4 °F 81% 29.59 in 10.0 mi SSW 5.8 mph - N/A   Unknown
7:14 AM 42.8 °F 40.1 °F 37.4 °F 81% 29.59 in 10.0 mi SSW 4.6 mph - N/A   Clear
7:34 AM 41.0 °F 38.0 °F 37.4 °F 87% 29.60 in 10.0 mi SSW 4.6 mph - N/A   Clear
7:54 AM 42.8 °F 39.3 °F 37.4 °F 81% 29.60 in 10.0 mi SSW 5.8 mph - N/A   Clear
8:14 AM 44.6 °F 40.2 °F 39.2 °F 81% 29.61 in 10.0 mi SSW 8.1 mph - N/A   Clear
8:34 AM 46.4 °F 45.2 °F 39.2 °F 76% 29.61 in 10.0 mi SW 3.5 mph - N/A   Clear
8:54 AM 48.2 °F - 39.2 °F 71% 29.62 in 10.0 mi SW 8.1 mph - N/A   Clear
9:14 AM 50.0 °F - 39.2 °F 66% 29.62 in 10.0 mi SW 11.5 mph 16.1 mph N/A   Clear
9:34 AM 50.0 °F - 39.2 °F 66% 29.62 in 10.0 mi SW 13.8 mph 18.4 mph N/A   Unknown
9:54 AM 51.8 °F - 37.4 °F 58% 29.63 in 10.0 mi WSW 15.0 mph 19.6 mph N/A   Unknown
10:14 AM 51.8 °F - 39.2 °F 62% 29.62 in 10.0 mi WSW 6.9 mph 17.3 mph N/A   Unknown
10:36 AM 51.8 °F - 39.2 °F 62% 29.62 in 10.0 mi WSW 12.7 mph 16.1 mph N/A   Unknown
10:54 AM 53.6 °F - 39.2 °F 58% 29.61 in 10.0 mi West 10.4 mph - N/A   Unknown
11:14 AM 53.6 °F - 39.2 °F 58% 29.61 in 10.0 mi WSW 11.5 mph 16.1 mph N/A   Clear
11:34 AM 53.6 °F - 39.2 °F 58% 29.61 in 10.0 mi WSW 8.1 mph - N/A   Clear
11:54 AM 53.6 °F - 37.4 °F 54% 29.61 in 10.0 mi WSW 8.1 mph - N/A   Clear
12:14 PM 53.6 °F - 37.4 °F 54% 29.61 in 10.0 mi SW 8.1 mph - N/A   Clear
12:34 PM 55.4 °F - 39.2 °F 54% 29.61 in 10.0 mi WSW 10.4 mph - N/A   Clear
12:54 PM 55.4 °F - 37.4 °F 51% 29.60 in 10.0 mi WSW 12.7 mph - N/A   Clear
1:14 PM 55.4 °F - 37.4 °F 51% 29.60 in 10.0 mi West 11.5 mph - N/A   Clear
1:34 PM 55.4 °F - 35.6 °F 47% 29.60 in 10.0 mi WSW 11.5 mph - N/A   Clear
1:54 PM 55.4 °F - 37.4 °F 51% 29.60 in 10.0 mi WSW 10.4 mph 16.1 mph N/A   Clear
2:14 PM 55.4 °F - 37.4 °F 51% 29.59 in 10.0 mi WSW 9.2 mph 16.1 mph N/A   Clear
2:34 PM 55.4 °F - 37.4 °F 51% 29.59 in 10.0 mi West 11.5 mph 18.4 mph N/A   Clear
2:54 PM 57.2 °F - 37.4 °F 48% 29.60 in 10.0 mi WSW 9.2 mph 16.1 mph N/A   Scattered Clouds
3:14 PM 55.4 °F - 39.2 °F 54% 29.60 in 10.0 mi WSW 10.4 mph 16.1 mph N/A   Unknown
3:36 PM 55.4 °F - 37.4 °F 51% 29.60 in 10.0 mi WSW 9.2 mph - N/A   Unknown
3:54 PM 55.4 °F - 37.4 °F 51% 29.60 in 10.0 mi WSW 10.4 mph 16.1 mph N/A   Unknown
4:14 PM 55.4 °F - 37.4 °F 51% 29.61 in 10.0 mi SW 8.1 mph - N/A   Clear
4:34 PM 53.6 °F - 39.2 °F 58% 29.61 in 10.0 mi WSW 6.9 mph - N/A   Unknown
4:54 PM 53.6 °F - 39.2 °F 58% 29.61 in 10.0 mi SW 5.8 mph - N/A   Unknown
5:14 PM 53.6 °F - 39.2 °F 58% 29.61 in 10.0 mi WSW 5.8 mph - N/A   Unknown
5:34 PM 53.6 °F - 39.2 °F 58% 29.62 in 10.0 mi West 4.6 mph - N/A   Unknown
5:54 PM 53.6 °F - 39.2 °F 58% 29.63 in 10.0 mi West 6.9 mph - N/A   Unknown
6:14 PM 53.6 °F - 39.2 °F 58% 29.63 in 10.0 mi West 5.8 mph - N/A   Unknown
6:34 PM 53.6 °F - 39.2 °F 58% 29.64 in 10.0 mi West 6.9 mph - N/A   Unknown
6:56 PM 53.6 °F - 39.2 °F 58% 29.64 in 10.0 mi West 5.8 mph - N/A   Unknown
7:14 PM 53.6 °F - 39.2 °F 58% 29.65 in 10.0 mi WSW 5.8 mph - N/A   Unknown
7:34 PM 51.8 °F - 39.2 °F 62% 29.65 in 10.0 mi West 4.6 mph - N/A   Unknown
7:54 PM 51.8 °F - 41.0 °F 67% 29.66 in 10.0 mi WSW 3.5 mph - N/A   Unknown
8:14 PM 48.2 °F - 42.8 °F 82% 29.66 in 10.0 mi Calm Calm - N/A   Unknown
8:34 PM 48.2 °F - 44.6 °F 87% 29.66 in 10.0 mi SW 3.5 mph - N/A   Unknown
8:56 PM 48.2 °F - 42.8 °F 82% 29.67 in 10.0 mi SW 3.5 mph - N/A   Unknown
9:14 PM 48.2 °F - 44.6 °F 87% 29.67 in 10.0 mi SW 3.5 mph - N/A   Unknown
9:34 PM 48.2 °F - 44.6 °F 87% 29.67 in 10.0 mi Calm Calm - N/A   Unknown
10:14 PM 48.2 °F - 44.6 °F 87% 29.68 in 10.0 mi WSW 4.6 mph - N/A   Unknown
10:34 PM 48.2 °F - 42.8 °F 82% 29.67 in 10.0 mi WSW 5.8 mph - N/A   Unknown
10:54 PM 51.8 °F - 41.0 °F 67% 29.68 in 10.0 mi WSW 6.9 mph - N/A   Unknown
11:14 PM 51.8 °F - 41.0 °F 67% 29.67 in 10.0 mi WSW 6.9 mph - N/A   Unknown
11:34 PM 51.8 °F - 41.0 °F 67% 29.68 in 10.0 mi WSW 5.8 mph - N/A   Unknown
11:54 PM 50.0 °F - 39.2 °F 66% 29.68 in 10.0 mi WSW 5.8 mph - N/A   Unknown